www.pogodaiklimat.ru

Погода и климат >> Архив погоды >> Россия >> Новосибирская область >> Усть-Тарка


ПОГОДА в Усть-Тарке

  • Прогноз погоды в Усть-Тарке
  • Монитор погоды в Усть-Тарке

АРХИВ ПОГОДЫ в Усть-Тарке

Время (UTC), дата Ветер
(напр.,м/с)
 
Видим.   Явления Облачность Т
(С)
Тd
(С)
f
(%)
Тe
(С)
Тes
(С)
Комфортность P
(гПа)
Po
(гПа)
Тmin
(С)
Tmax
(С)
R
(мм)
R24
(мм)
S
(см)
09 11.06 Ю 4 50 км 4 балла +25.8 +17.4 60 +30 +35 душно 1011.4 1000.0
12 11.06 Ю 4 50 км 5/5 600 м
[Cu med, cong]
+26.2 +16.8 56 +30 +31 душно 1007.7 996.4 +26.8
15 11.06 Ю 3 50 км 5 баллов +23.4 +16.9 67 +29 +29 душно 1007.5 996.0
18 11.06 Ю 2 50 км 8/8 600 м
[Cb cap]
+20.6 +16.4 77 +24 +24 комфорт 1007.6 996.0
21 11.06 Ю 1 50 км 7 баллов +17.7 +15.7 88 +19 +19 1005.0 993.3
00 12.06 ЮВ 2 50 км 5/5 600 м
[Sc]
+15.1 +14.3 95 +15 +15 1004.1 992.4 +15.0
03 12.06 С 3 10 км гроза, ливневой дождь 10 баллов +17.7 +17.1 96 +18 +18 1004.9 993.3
06 12.06 З 2 50 км в посл. час ливневой дождь {гроза} 9/9 600 м
[Cb cap]
+19.6 +17.7 89 +23 +24 комфорт 1003.6 992.0
09 12.06 ЮЗ 3 50 км 7 баллов +23.6 +17.6 69 +28 +31 душно 1003.4 992.0
12 12.06 ЮЗ 4 50 км 6/5 600 м
[Cb cap Ci sp]
+24.8 +16.9 61 +28 +30 жарко 1000.5 989.1 +25.1 16
15 12.06 В 4
{15}
10 км гроза, ливневой дождь 9/9 600 м
[Cb cap]
+15.6 +13.6 88 +15 +15 1001.1 989.4
18 12.06 Ю 3 50 км {гроза, ливн. осадки} 4/4 600 м
[Cb cap]
+15.1 +14.0 93 +14 +14 1001.0 989.3
21 12.06 ЮЗ 2 50 км 2 балла +15.1 +14.1 94 +15 +15 999.7 988.0
00 13.06 ЮЗ 2 50 км 3/3 600 м
[Sc]
+15.6 +13.8 89 +15 +16 998.3 986.6 +13.0 1
03 13.06 ЮЗ 3 50 км 9 баллов +18.3 +12.9 71 +19 +19 999.6 988.0
06 13.06 ЮЗ 5
{10}
50 км 9/5 600 м
[Sc Ci sp]
+19.4 +12.4 64 +20 +21 999.5 988.0
09 13.06 З 4 50 км в посл. час ливневой дождь 9 баллов +18.0 +13.3 74 +18 +19 999.6 988.0
12 13.06 З 4 50 км {ливн. осадки} 10/10 600 м
[Cb cap]
+17.2 +10.0 63 +17 +17 999.4 987.7 +21.5 0.9
15 13.06 З 2 50 км 7 баллов +13.1 +9.7 80 +12 +12 1002.5 990.7
18 13.06 СЗ 2 50 км 3/3 600 м
[Sc]
+8.9 +7.3 90 +7 +7 1002.7 990.7
21 13.06 СЗ 2 50 км ясно +8.0 +6.6 91 +6 +6 1004.1 992.0
00 14.06 З 2 50 км ясно +7.5 +6.0 90 +5 +6 1005.0 992.9 +5.1
03 14.06 СЗ 7 50 км ясно +11.1 +7.0 76 +8 +10 1006.7 994.7
06 14.06 З 11 50 км 8/8 600 м
[Cb cap]
+11.1 +3.9 61 +7 +7 1008.0 996.0
09 14.06 З 3 50 км 10 баллов +13.1 +3.5 52 +12 +12 1007.9 996.0
12 14.06 З 3 50 км 10/10 600 м
[Cb cap]
+13.8 +2.5 46 +9 +9 1006.8 994.9 +17.7
15 14.06 СЗ 8 50 км 10 баллов +11.0 +4.0 62 +8 +8 1008.0 996.0
18 14.06 ЮЗ 7 50 км 10/10 600 м
[Cb cap]
+7.0 +1.9 70 +2 +2 1009.5 997.3
21 14.06 Ю 5 50 км 10 баллов +5.1 +1.2 76 +1 +1 1009.6 997.3
00 15.06 штиль 0 50 км ?/? +5.8 +1.6 74 +5 +5 1008.9 996.7 +3.3
03 15.06 С 3 50 км ясно +10.5 +4.4 66 +9 +15 1009.3 997.3
06 15.06 СВ 3 50 км 10/10 600 м
[Cb cap]
+11.4 +4.8 64 +10 +10 1010.7 998.7
09 15.06 СЗ 4 50 км 10 баллов +14.7 +6.5 58 +14 +14 1010.6 998.7
12 15.06 СЗ 3 50 км 10/10 600 м
[Cb cap]
+16.1 +7.0 55 +16 +16 1008.3 996.6 +16.1
15 15.06 50 км 7 баллов +12.7 +9.2 79 1009.2 997.3
18 15.06 50 км 2 балла +6.1 +6.0 99 1009.5 997.3
21 15.06 штиль 0 50 км 2 балла +4.8 +4.8 100 +4 +4 1009.6 997.3
00 16.06 С 6 50 км 3/3 600 м
[]
+7.5 +6.9 96 -2 -2 1007.0 994.9 +3.5
03 16.06 С 4 50 км 4 балла +12.6 +4.6 58 +11 +14 1006.6 994.7
06 16.06 СЗ 3 50 км 6 баллов +15.0 +3.5 46 +14 +20 1006.5 994.7
09 16.06 СЗ 3 50 км 5 баллов +16.9 +4.2 43 +17 +22 1006.4 994.7
12 16.06 З 8-12
{14}
50 км 9/9 600 м
[Cb cap]
+14.7 +6.2 57 +13 +13 1005.4 993.6 +19.0
15 16.06 З 2 50 км 6 баллов +12.3 +8.4 77 +11 +11 1006.6 994.7
18 16.06 ЮВ 2 50 км 4 балла +11.3 +9.2 87 +10 +10 1008.0 996.0
21 16.06 ЮЗ 3 50 км 7 баллов +11.8 +10.2 90 +10 +10 1008.0 996.0
00 17.06 Ю 3 50 км 3/3 600 м
[Sc]
+10.2 +7.5 83 +8 +9 1006.5 994.5 +9.6 0.0
03 17.06 Ю 4 50 км 2 балла +15.7 +9.4 66 +15 +19 1007.8 996.0
06 17.06 Ю 6 50 км 9 баллов +19.0 +5.4 41 +19 +20 1006.4 994.7
09 17.06 Ю 6-10
{11}
50 км 9/8 600 м
[Cb cap Ci sp]
+19.8 +7.5 45 +20 +21 1004.9 993.3
12 17.06 ЮЗ 1
{14}
50 км {ливн. осадки} 9/9 600 м
[Cb cap]
+18.0 +9.0 56 +19 +20 1003.1 991.5 +21.0 0.4
15 17.06 ЮВ 2 50 км 9 баллов +13.3 +12.8 97 +12 +12 1003.8 992.0
18 17.06 В 2 10 км слаб. ливневой дождь 10 баллов +12.3 +11.7 96 +11 +11 1005.2 993.3
21 17.06 СЗ 1 10 км слаб. ливневой дождь 10 баллов +11.1 +10.6 97 +11 +11 1003.9 992.0
00 18.06 С 2 10 км слаб. ливневой дождь 10/10 300 м
[Cb cap]
+11.4 +11.2 99 +10 +10 1001.0 989.1 +10.6 10
03 18.06 С 2 10 км слаб. ливневой дождь 10 баллов +11.6 +11.4 99 +10 +10 1001.2 989.3
06 18.06 СВ 3 10 км слаб. ливневой дождь 10 баллов +12.0 +11.8 99 +10 +10 998.5 986.7

 

Местоположение метеостанции Усть-Тарка (Новосибирская область, Россия): широта 55.57 долгота 75.68 высота над уровнем моря 100 м.

В архиве по умолчанию представлена погода в Усть-Тарке за последнюю неделю. Архивные данные за месяц целиком и за предыдущие месяцы, начиная с января 2011 года, Вы можете получить, выбрав интересующий диапазон дат из раскрывающегося списка и нажав кнопку "Ввод!".


*Определитесь, кто Вы:
робот инопланетянин человек

Внимание! Время в таблицах - всемирное. Для получения местного времени необходимо прибавить поправку, которая равна 7 ч.

Смотрите также архив погоды в соседних городах и на ближайших метеорологических станциях:

Погода в Татарске (Новосибирская область, Россия) (44 км)
Погода в Нижней Омке (Омская область, Россия) (50 км)
Погода в Венгерово (Новосибирская область, Россия) (66 км)
Погода в Чанах (Новосибирская область, Россия) (73 км)
Погода в Большеречье (Омская область, Россия) (88 км)
Погода в Калачинске (Омская область, Россия) (92 км)
Погода в Муромцево (Омская область, Россия) (93 км)
Погода в Любимовке (Омская область, Россия) (107 км)
Погода в Чистоозерном (Новосибирская область, Россия) (112 км)
Погода в Кыштовке (Новосибирская область, Россия) (127 км)

Пояснения к столбцам:

Ветер - указаны скорость ветра в м/с - средняя за 10 мин, порывы в срок и между сроками (в фигурных скобках) и направление, откуда дует ветер: С - северный, СВ - северо-восточный, В - восточный, ЮВ - юго-восточный, Ю - южный, ЮЗ - юго-западный, З - западный, СЗ - северо-западный.
Видимость - горизонтальная дальность видимости в метрах или километрах. При видимости от 1 до 10 км при отсутствии осадков обычно наблюдается дымка, при ухудшении видимости до 1 км и менее - туман. В сухую погоду видимость может ухудшаться дымом, пылью или мглою.
Явления - указаны атмосферные явления, наблюдавшиеся в срок или в последний час перед сроком; фигурными скобками обозначены явления, наблюдавшиеся между сроками (за 1-3 часа до срока); квадратными скобками обозначены град или гололедные отложения с указанием их диаметра в мм.
Облачность - указаны через наклонную черту общая и нижняя облачность в баллах и высота нижней границы облаков в метрах; квадратными скобками обозначены формы облаков: Ci - перистые, Cs - перисто-слоистые, Cc - перисто-кучевые, Ac - высококучевые, As - высокослоистые, Sc - слоисто-кучевые, Ns - слоисто-дождевые, Cu - кучевые, Cb - кучево-дождевые. Подробнее классификацию облаков см. в Атласе облаков (PDF).
T - Температура воздуха - температура, измеренная на высоте 2 м над землей.
Td - Температура точки росы - температура, при понижении до которой содержащийся в воздухе водяной пар достигнет насыщения.
f - Относительная влажность воздуха - влажноcть воздуха, измеренная на высоте 2 м над землей.
Te - Эффективная температура - температура, которую ощущает одетый по сезону человек в тени. Характеристика душности погоды. При расчете учитывается влияние влажности воздуха и скорости ветра на теплоощущения человека.
Tes - Эффективная температура на солнце - температура, которую ощущает человек, с поправкой на солнечный нагрев. Характеристика знойности погоды. Зависит от высоты солнца над горизонтом, облачности и скорости ветра. Ночью, в пасмурную погоду, а также при ветре 12 м/с и более поправка равна нулю.
P - Атмосферное давление - приведенное к уровню моря атмосферное давление.
Po - Атмосферное давление - измеренное на уровне метеостанции атмосферное давление.
Tmin - Минимальная температура - минимум температуры воздуха на высоте 2 м над землей.
Tmax - Максимальная температура - максимум температуры воздуха на высоте 2 м над землей.
R - Количество осадков - Количество выпавших осадков за период времени, мм. При наведении курсора мыши на число - период времени, за который выпало указанное количество осадков.
R24 - Количество осадков - Количество выпавших осадков за 24 часа, мм.
S - Снежный покров - Высота снежного покрова, см. При наведении курсора мыши на число - состояние снежного покрова и степень покрытия местности в баллах.